Weather History for Kansas City International, MO

Change the Weather History Date:

Thursday, February 14, 2013

  Actual Average Record
Temperature  
Mean Temperature 42 °F 33 °F  
Max Temperature 50 °F 43 °F 76 °F (1954)
Min Temperature 34 °F 23 °F -4 °F (1936)
Degree Days  
Heating Degree Days 23 32  
Month to date heating degree days 391 472  
Since 1 July heating degree days 3218 3636  
Cooling Degree Days 0 0  
Month to date cooling degree days 0 0  
Year to date cooling degree days 0 0  
Moisture  
Dew Point 25 °F    
Average Humidity 52    
Maximum Humidity 70    
Minimum Humidity 33    
Precipitation  
Precipitation 0.00 in 0.05 in 0.71 in (1908)
Month to date precipitation 0.41 0.69  
Year to date precipitation 1.44 1.76  
Snow  
Snow 0.00 in 0.20 in 5.80 in (1897)
Month to date snowfall 0.0 2.9  
Since 1 July snowfall 4.7 13.7  
Snow Depth 0.00 in    
Sea Level Pressure  
Sea Level Pressure 30.01 in    
Wind  
Wind Speed 10 mph (WNW)    
Max Wind Speed 22 mph    
Max Gust Speed 25 mph    
Visibility 10 miles    
Events      
T = Trace of Precipitation, MM = Missing Value Source: NWS Daily Summary

Daily Weather History Graph

Daily Weather History Graph

Search for Another Location

Airport:

Trip Planner

Search our weather history database for the weather conditions in past years. The results will help you decide how hot, cold, wet, or windy it might be!

Date:

Astronomy

Feb. 14, 2013 Rise Set
Actual Time 7:11 AM CST 5:55 PM CST
Civil Twilight 6:44 AM CST 6:22 PM CST
Nautical Twilight 6:12 AM CST 6:54 PM CST
Astronomical Twilight 5:41 AM CST 7:25 PM CST
Moon 9:16 AM CST (2/14) 10:56 PM CST (2/14)
Length of Visible Light 11h 38m
Length of Day
10h 43m
Waxing Crescent, 22% of the Moon is Illuminated
Feb 14
Waxing Crescent
Feb 17
First Quarter
Feb 25
Full
Mar 4
Last Quarter
Mar 11
New

Hourly Weather History & Observations

Time (CST) Temp. Windchill Dew Point Humidity Pressure Visibility Wind Dir Wind Speed Gust Speed Precip Events Conditions
12:53 AM 36.0 °F 29.6 °F 21.9 °F 57% 29.84 in 10.0 mi SW 8.1 mph - N/A   Clear
1:53 AM 36.0 °F 30.3 °F 21.9 °F 57% 29.83 in 10.0 mi SW 6.9 mph - N/A   Clear
2:53 AM 35.1 °F 29.3 °F 23.0 °F 61% 29.84 in 10.0 mi SW 6.9 mph - N/A   Clear
3:53 AM 36.0 °F 29.6 °F 23.0 °F 59% 29.86 in 10.0 mi West 8.1 mph - N/A   Partly Cloudy
4:53 AM 37.0 °F 31.0 °F 25.0 °F 62% 29.88 in 10.0 mi WNW 8.1 mph - N/A   Scattered Clouds
5:53 AM 37.0 °F 31.6 °F 26.1 °F 65% 29.91 in 10.0 mi NW 6.9 mph - N/A   Partly Cloudy
6:53 AM 37.0 °F 32.4 °F 28.0 °F 70% 29.94 in 10.0 mi WNW 5.8 mph - N/A   Partly Cloudy
7:53 AM 37.9 °F 32.1 °F 28.0 °F 68% 29.97 in 10.0 mi NW 8.1 mph - N/A   Scattered Clouds
8:53 AM 41.0 °F 34.7 °F 28.9 °F 62% 30.00 in 10.0 mi NW 10.4 mph - N/A   Mostly Cloudy
9:53 AM 45.0 °F 37.6 °F 28.9 °F 53% 29.99 in 10.0 mi NNW 17.3 mph - N/A   Mostly Cloudy
10:53 AM 46.9 °F - 28.0 °F 48% 30.02 in 10.0 mi NW 10.4 mph 18.4 mph N/A   Overcast
11:53 AM 48.0 °F - 28.0 °F 46% 30.04 in 10.0 mi NNW 10.4 mph 20.7 mph N/A   Overcast
12:53 PM 48.0 °F - 27.0 °F 44% 30.03 in 9.0 mi NW 12.7 mph - N/A   Overcast
1:53 PM 48.9 °F - 27.0 °F 43% 30.02 in 10.0 mi NW 11.5 mph 20.7 mph N/A   Overcast
2:53 PM 50.0 °F - 26.1 °F 39% 30.02 in 10.0 mi NW 11.5 mph - N/A   Overcast
3:53 PM 50.0 °F - 23.0 °F 35% 30.03 in 10.0 mi WNW 17.3 mph 24.2 mph N/A   Overcast
4:53 PM 48.0 °F - 21.9 °F 36% 30.05 in 10.0 mi NW 17.3 mph 24.2 mph N/A   Overcast
5:53 PM 45.0 °F 38.5 °F 21.0 °F 39% 30.08 in 10.0 mi NW 13.8 mph 23.0 mph N/A   Overcast
6:53 PM 43.0 °F 38.2 °F 21.9 °F 43% 30.10 in 10.0 mi NW 8.1 mph - N/A   Mostly Cloudy
7:53 PM 39.9 °F 35.8 °F 21.9 °F 49% 30.12 in 10.0 mi WNW 5.8 mph - N/A   Mostly Cloudy
8:53 PM 39.9 °F 33.9 °F 21.9 °F 49% 30.12 in 10.0 mi WNW 9.2 mph - N/A   Mostly Cloudy
9:53 PM 39.0 °F 32.3 °F 19.9 °F 46% 30.13 in 10.0 mi NW 10.4 mph - N/A   Mostly Cloudy
10:53 PM 37.0 °F 27.7 °F 21.0 °F 52% 30.15 in 10.0 mi NW 16.1 mph 23.0 mph N/A   Mostly Cloudy
11:53 PM 34.0 °F 26.0 °F 24.1 °F 67% 30.18 in 10.0 mi WNW 10.4 mph - N/A   Scattered Clouds